Location: Newark
(38.9311°S, 68.8090°E)
Time: 11:25:10
(UTC+00:00)

Hubble Space Telescope - Visible Passes

Search period start: 20 January 2020 00:00
Search period end: 30 January 2020 00:00
Orbit: 536 x 540 km, 28.5° (Epoch: 19 January)

Date Brightness Start Highest point End Pass type
(mag) Time Alt. Az. Time Alt. Az. Time Alt. Az.
26 Jan 3.0 16:46:43 10° NW 16:47:31 13° NNW 16:47:31 13° NNW visible
27 Jan 2.7 16:35:57 10° NW 16:37:39 17° NNW 16:37:39 17° NNW visible
28 Jan 2.5 16:25:14 10° NW 16:27:40 19° NNW 16:27:40 19° NNW visible
29 Jan 2.4 16:14:33 10° NW 16:17:30 19° N 16:17:36 19° N visible
